WESTFORD NEEDLES, 2431

Orbit data source: Space-Track

WESTFORD NEEDLES, 2431 is space debris in LEO originally from a launch on Thu, 09 May 1963 UTC launched from the Air Force Western Test Range (AFWTR). Debris objects in space refer to the collection of defunct objects orbiting the Earth. Examples of debris include non-operational satellites, rocket bodies, and fragments generated from explosions, collisions, or faulty payload assembly.

Loading next visibility...
Identifier
2431, 1963-014AC
Orbit
LEO
Last TLE update
6 days ago
Origin
Manufacturer
Unknown
Mission
Spacecraft
Bus & Motor
Unknown
Mass
Unknown
Launch date (UTC)
1963-05-09 (62 years ago)
Launch vehicle
Unknown
Launch site
Air Force Western Test Range (AFWTR)
Object type
Payload
Rocket body
Debris
Shape & HBR
Unknown
Radar Cross Section
Medium (>0.1 m² and <1 m²)

Expand to show TLE details & history

TLE from 6 days ago
0 WESTFORD NEEDLES
1 02431U 63014AC  25184.05971809  .00000058  00000-0  23319-1 0  9995
2 02431  87.5010 223.6687 0391331 314.3755  42.5665  8.68616759339396
Epoch: 2025-07-03T01:25Z
TLE epoch observation values (Epoch: 2025-07-03T01:25:59.642Z)
Latitude
-0.00002°
Longitude
-79.16171°
Altitude
3,339.778 km
Speed
6.495 km/s
True Right ascension
14h 54m 40s
True Declination
0° 00' 00"
Sunlit
Object was in daylight at epoch
Visualization orbit readout
Latitude
17.18054°
Longitude
-78.9539°
Altitude
3,468.061 km
Speed
6.412 km/s
Apparent Right ascension
12h 50m 04s
Apparent Declination
-8° 08' 58"
Sunlit
Object is in daylight
Visualization observer readout
Local Sidereal Time
18:57:54
Azimuth
264.973° W
Elevation
-6.713°
Doppler factor
1
Orbital elements
Apogee altitude
4,007.324 km
Perigee altitude
3,225.104 km
Semi-major axis
9,994.351 km
Eccentricity
0.03913
Inclination
87.501°
RAAN
223.6687°
Arg. of periapsis
314.3755°
True anomaly
Unknown
Mean anomaly
42.5665°
Eccentric anomaly
Unknown
Mean motion
2.17226 °/min
Orbital period
165.73 mins
BSTAR
0.023319
Loading maneuver chart data...
Loading SW <> Apogee altitude chart data...

WESTFORD NEEDLES Visibility forecast

Observer location: undefined°, undefined°

Span
Click to sort rows by Start time (UTC) header in descending order
Start Az.
Max El. time (UTC)
Max El. Az.
Max El.
End time (UTC)
End Az.
9 mins2025-07-09 10:18:31.172Z26.463° NE2025-07-09 10:22:31.172Z38.401° NE10.865°2025-07-09 10:27:31.172Z53.302° ENE
38 mins2025-07-09 12:59:31.172Z3.64° NNE2025-07-09 13:18:31.172Z78.963° E39.437°2025-07-09 13:37:31.172Z154.735° SSE
35 mins2025-07-09 15:46:31.172Z350.499° N2025-07-09 16:03:31.172Z287.159° WNW36.947°2025-07-09 16:21:31.172Z220.841° SW
18 mins2025-07-09 23:31:31.172Z81.566° E2025-07-09 23:39:31.172Z53.272° ENE17.23°2025-07-09 23:49:31.172Z20.239° NNE
36 mins2025-07-10 02:03:31.172Z164.582° S2025-07-10 02:19:31.172Z91.698° ESE44.025°2025-07-10 02:39:31.172Z3.698° NNE
30 mins2025-07-10 04:54:31.172Z239.545° WSW2025-07-10 05:08:31.172Z295.92° NW27.341°2025-07-10 05:24:31.172Z352.843° N
|